www.pogodaiklimat.ru

Погода и климат >> Архив погоды >> Пакистан >> Ханевал


ПОГОДА в Ханевале

  • Прогноз погоды в Ханевале
  • Монитор погоды в Ханевале

АРХИВ ПОГОДЫ в Ханевале

Время (UTC), дата Ветер
(напр.,м/с)
 
Видим.   Явления Облачность Т
(С)
Тd
(С)
f
(%)
Тe
(С)
Тes
(С)
Комфортность P
(гПа)
Po
(гПа)
Тmin
(С)
Tmax
(С)
R
(мм)
R24
(мм)
S
(см)
21 16.09 штиль 0 4000 м дым ясно +29.0 +26.2 85 +44 +44 опасность
перегрева
1000.3 985.5
00 17.09 штиль 0 4000 м дым ясно +27.5 +26.1 92 +41 +41 опасность
перегрева
999.9 983.5
03 17.09 штиль 0 4000 м дым ясно +28.0 +25.2 85 +41 +45 опасность
перегрева
1001.0 984.6 +26.8
06 17.09 штиль 0 4000 м дым ясно +33.0 +25.3 64 +47 +68 опасность
перегрева
1002.2 985.8
09 17.09 ЮВ 2 4000 м дым 3/3 1200 м
[Sc diur, vesp]
+36.0 +25.6 55 +51 +60 опасность
перегрева
1001.4 986.9
12 17.09 штиль 0 4000 м дым 3/3 1200 м
[Sc]
+36.0 +25.6 55 +51 +52 опасность
перегрева
1000.2 983.8 +36.5
15 17.09 штиль 0 4000 м дым 4/0
[Ac trans]
+32.0 +25.8 70 +47 +47 опасность
перегрева
1000.2 985.5
18 17.09 штиль 0 4000 м дым 3/0
[Ac trans]
+30.0 +25.1 75 +43 +43 опасность
перегрева
1002.0 985.6
21 17.09 штиль 0 4000 м дым 3/0
[Ac trans]
+28.0 +24.4 81 +39 +39 очень
душно
1001.1 986.2
00 18.09 штиль 0 4000 м дым 3/0
[Ac trans]
+26.0 +24.6 92 +37 +37 очень
душно
1001.6 985.2
03 18.09 штиль 0 4000 м дым ясно +28.0 +25.2 85 +41 +45 опасность
перегрева
1003.8 987.4 +24.5
06 18.09 штиль 0 4000 м дым ясно +35.0 +25.3 57 +49 +69 опасность
перегрева
1005.6 989.2
09 18.09 ЮЗ 2 4000 м дым ясно +38.0 +24.0 45 +49 +62 опасность
перегрева
1004.2 989.7
12 18.09 штиль 0 4000 м мгла ясно +38.0 +24.0 45 +49 +51 опасность
перегрева
1003.0 986.6 +39.2
15 18.09 штиль 0 4000 м дым ясно +32.0 +25.0 67 +46 +46 опасность
перегрева
1004.2 989.5
18 18.09 штиль 0 4000 м дым ясно +29.0 +24.8 78 +41 +41 опасность
перегрева
1005.2 988.8
21 18.09 штиль 0 4000 м дым ясно +27.0 +24.1 84 +37 +37 очень
душно
1004.6 989.6
03 19.09 В 2 4000 м дым 6/6 1200 м
[Sc Ac trans]
+28.0 +25.2 85 +41 +42 опасность
перегрева
1006.2 989.8 +25.7
06 19.09 СВ 2 4000 м дым 4/0
[Ac As]
+33.5 +25.9 65 +49 +60 опасность
перегрева
1007.3 990.9
09 19.09 СВ 2 4000 м мгла ясно +36.5 +23.8 48 +47 +60 опасность
перегрева
1006.5 991.9
12 19.09 штиль 0 4000 м дым ясно +35.5 +23.5 50 +46 +48 опасность
перегрева
1005.0 988.6 +37.5
15 19.09 СВ 2 4000 м дым ясно +31.0 +23.9 66 +43 +43 опасность
перегрева
1005.3 990.5
18 19.09 штиль 0 4000 м дым ясно +28.5 +24.2 78 +40 +40 очень
душно
1005.4 989.0
21 19.09 штиль 0 4000 м дым ясно +27.0 +24.1 84 +37 +37 очень
душно
1004.8 989.8
00 20.09 штиль 0 4000 м дым ясно +26.0 +24.6 92 +37 +37 очень
душно
1005.3 988.9
03 20.09 штиль 0 4000 м дым ясно +27.0 +24.1 84 +37 +42 очень
душно
1006.4 990.0 +25.3
06 20.09 СВ 2 4000 м дым ясно +32.5 +24.0 61 +44 +59 опасность
перегрева
1007.5 991.1
09 20.09 штиль 0 4000 м дым 4/4 1200 м
[Sc]
+34.5 +23.1 52 +45 +55 опасность
перегрева
1006.2 991.6
12 20.09 штиль 0 4000 м дым ясно +33.0 +23.8 59 +45 +47 опасность
перегрева
1004.6 988.2 +35.0
15 20.09 штиль 0 4000 м дым ясно +29.5 +23.8 71 +40 +40 очень
душно
1005.0 990.1
18 20.09 штиль 0 4000 м дым ясно +28.0 +23.7 77 +38 +38 очень
душно
1005.8 989.4
21 20.09 штиль 0 4000 м дым ясно +26.5 +22.9 81 +35 +35 очень
душно
1005.8 990.8
00 21.09 штиль 0 4000 м дым ясно +25.0 +23.5 91 +34 +34 очень
душно
1005.7 989.3
03 21.09 штиль 0 4000 м дым ясно +26.5 +24.4 88 +37 +41 очень
душно
1007.0 990.6 +24.4
06 21.09 СВ 2 4000 м дым 4/4 1200 м
[Sc]
+32.5 +24.0 61 +44 +53 опасность
перегрева
1007.0 990.6
09 21.09 ЮВ 2 4000 м дым 5/5 1200 м
[Sc]
+34.0 +24.1 56 +46 +52 опасность
перегрева
1005.9 991.2
12 21.09 СВ 2 4000 м дым ясно +33.5 +24.4 59 +46 +48 опасность
перегрева
1003.4 987.0 +34.5
18 21.09 штиль 0 4000 м дым ясно +27.0 +23.4 81 +37 +37 очень
душно
1004.7 988.3
21 21.09 штиль 0 4000 м дым ясно +25.0 +22.0 83 +32 +32 очень
душно
1004.9 989.8
00 22.09 штиль 0 4000 м ясно +24.0 1004.1 987.7
03 22.09 штиль 0 4000 м дым ясно +26.5 +23.6 84 +36 +40 очень
душно
1005.9 989.5 +23.5
06 22.09 штиль 0 4000 м дым ясно +33.0 +23.8 59 +45 +64 опасность
перегрева
1007.5 991.1
09 22.09 СВ 2 4000 м мгла 4/4 1200 м
[Sc]
+35.0 +22.0 47 +44 +51 опасность
перегрева
1007.2 992.6
12 22.09 СВ 2 4000 м дым ясно +34.0 +23.3 54 +45 +46 опасность
перегрева
1005.5 989.1 +35.4
15 22.09 штиль 0 4000 м дым ясно +29.5 +25.3 78 +43 +43 опасность
перегрева
1005.2 990.3
18 22.09 штиль 0 4000 м дым ясно +27.5 +23.1 77 +37 +37 очень
душно
1005.9 989.5
21 22.09 штиль 0 4000 м дым ясно +26.0 +22.3 80 +34 +34 очень
душно
1006.0 990.9
00 23.09 штиль 0 4000 м дымка ясно +25.0 +22.8 88 +33 +33 очень
душно
1006.1 989.7
03 23.09 штиль 0 4000 м дымка ясно +26.5 +24.4 88 +37 +41 очень
душно
1008.3 991.9 +24.0
06 23.09 штиль 0 4000 м дым ясно +32.0 +23.4 60 +43 +62 опасность
перегрева
1010.1 993.7
12 23.09 штиль 0 4000 м дым ясно +33.5 +23.5 56 +44 +46 опасность
перегрева
1006.4 990.0 +35.5
15 23.09 штиль 0 4000 м дым ясно +29.5 +24.5 75 +42 +42 опасность
перегрева
1006.5 991.6

 

Местоположение метеостанции Ханевал (Пакистан): широта 30.30 долгота 71.90 высота над уровнем моря 132 м.

В архиве по умолчанию представлена погода в Ханевале за последнюю неделю. Архивные данные за месяц целиком и за предыдущие месяцы, начиная с января 2011 года, Вы можете получить, выбрав интересующий диапазон дат из раскрывающегося списка и нажав кнопку "Ввод!".


*Определитесь, кто Вы:
робот инопланетянин человек

Внимание! Время в таблицах - всемирное. Для получения местного времени необходимо прибавить поправку, которая равна 5 ч.

Смотрите также архив погоды в соседних городах и на ближайших метеорологических станциях:

Погода в Мултане (Пакистан) (47 км)
Погода на Авиабазе Raifiqui (Пакистан) (61 км)
Погода в Кот Адду (Пакистан) (93 км)
Погода в Тоба Тек Сингх (Пакистан) (93 км)
Погода в Бахавалпуре (Пакистан) (101 км)
Погода а Бахавалпур аэропорту (Пакистан) (101 км)
Погода в Сахивале (Пакистан) (115 км)
Погода в Джанге (Пакистан) (115 км)
Погода в Леяхе (Пакистан) (120 км)
Погода в Дера Гази Хан (Пакистан) (125 км)

Пояснения к столбцам:

Ветер - указаны скорость ветра в м/с - средняя за 10 мин, порывы в срок и между сроками (в фигурных скобках) и направление, откуда дует ветер: С - северный, СВ - северо-восточный, В - восточный, ЮВ - юго-восточный, Ю - южный, ЮЗ - юго-западный, З - западный, СЗ - северо-западный.
Видимость - горизонтальная дальность видимости в метрах или километрах. При видимости от 1 до 10 км при отсутствии осадков обычно наблюдается дымка, при ухудшении видимости до 1 км и менее - туман. В сухую погоду видимость может ухудшаться дымом, пылью или мглою.
Явления - указаны атмосферные явления, наблюдавшиеся в срок или в последний час перед сроком; фигурными скобками обозначены явления, наблюдавшиеся между сроками (за 1-3 часа до срока); квадратными скобками обозначены град или гололедные отложения с указанием их диаметра в мм.
Облачность - указаны через наклонную черту общая и нижняя облачность в баллах и высота нижней границы облаков в метрах; квадратными скобками обозначены формы облаков: Ci - перистые, Cs - перисто-слоистые, Cc - перисто-кучевые, Ac - высококучевые, As - высокослоистые, Sc - слоисто-кучевые, Ns - слоисто-дождевые, Cu - кучевые, Cb - кучево-дождевые. Подробнее классификацию облаков см. в Атласе облаков (PDF).
T - Температура воздуха - температура, измеренная на высоте 2 м над землей.
Td - Температура точки росы - температура, при понижении до которой содержащийся в воздухе водяной пар достигнет насыщения.
f - Относительная влажность воздуха - влажноcть воздуха, измеренная на высоте 2 м над землей.
Te - Эффективная температура - температура, которую ощущает одетый по сезону человек в тени. Характеристика душности погоды. При расчете учитывается влияние влажности воздуха и скорости ветра на теплоощущения человека.
Tes - Эффективная температура на солнце - температура, которую ощущает человек, с поправкой на солнечный нагрев. Характеристика знойности погоды. Зависит от высоты солнца над горизонтом, облачности и скорости ветра. Ночью, в пасмурную погоду, а также при ветре 12 м/с и более поправка равна нулю.
P - Атмосферное давление - приведенное к уровню моря атмосферное давление.
Po - Атмосферное давление - измеренное на уровне метеостанции атмосферное давление.
Tmin - Минимальная температура - минимум температуры воздуха на высоте 2 м над землей.
Tmax - Максимальная температура - максимум температуры воздуха на высоте 2 м над землей.
R - Количество осадков - Количество выпавших осадков за период времени, мм. При наведении курсора мыши на число - период времени, за который выпало указанное количество осадков.
R24 - Количество осадков - Количество выпавших осадков за 24 часа, мм.
S - Снежный покров - Высота снежного покрова, см. При наведении курсора мыши на число - состояние снежного покрова и степень покрытия местности в баллах.